This is the latest recevied weather packets stored in our database for station/object DO7ZT-10. If no packets are shown the sender has not sent any weather packets the latest 10 day(s).
| Time | Temp. | Humidity | Pressure | Rain* | Wind** | Luminosity | Snow |
|---|---|---|---|---|---|---|---|
| 1787993215 | 19.44° C | 61% | 1016.2 hPa | - | - | - | - |
| 1787992315 | 18.33° C | 66% | 1016.1 hPa | - | - | - | - |
| 1787991415 | 18.33° C | 69% | 1016 hPa | - | - | - | - |
| 1787990515 | 18.33° C | 71% | 1015.9 hPa | - | - | - | - |
| 1787989615 | 17.78° C | 74% | 1015.9 hPa | - | - | - | - |
| 1787988715 | 17.22° C | 75% | 1015.6 hPa | - | - | - | - |
| 1787987815 | 17.22° C | 74% | 1015.6 hPa | - | - | - | - |
| 1787986915 | 17.22° C | 80% | 1015.5 hPa | - | - | - | - |
| 1787986015 | 16.67° C | 79% | 1015.5 hPa | - | - | - | - |
| 1787985115 | 16.67° C | 83% | 1015.3 hPa | - | - | - | - |
| 1787984215 | 16.11° C | 84% | 1015.3 hPa | - | - | - | - |
| 1787983314 | 16.11° C | 88% | 1015.3 hPa | - | - | - | - |
| 1787982414 | 16.11° C | 86% | 1015.1 hPa | - | - | - | - |
| 1787981514 | 15.56° C | 86% | 1015.1 hPa | - | - | - | - |
| 1787980614 | 15.56° C | 87% | 1015.1 hPa | - | - | - | - |
| 1787979714 | 15.56° C | 87% | 1014.9 hPa | - | - | - | - |
| 1787978814 | 15.56° C | 88% | 1014.7 hPa | - | - | - | - |
| 1787977914 | 15.56° C | 88% | 1014.3 hPa | - | - | - | - |
| 1787977014 | 15.56° C | 89% | 1014.3 hPa | - | - | - | - |
| 1787976114 | 15.56° C | 88% | 1014.1 hPa | - | - | - | - |
| 1787975214 | 15.56° C | 90% | 1013.9 hPa | - | - | - | - |
| 1787974314 | 15.56° C | 89% | 1013.9 hPa | - | - | - | - |
| 1787973414 | 15.56° C | 89% | 1013.8 hPa | - | - | - | - |
| 1787972514 | 15.56° C | 89% | 1013.7 hPa | - | - | - | - |
| 1787971614 | 15° C | 89% | 1013.6 hPa | - | - | - | - |
* Rain since midnight (hover to see other rain measurements)
** Current wind speed in m/s (hover to see current wind gust speed)